Orbital Elements at Epoch 2459200.5 (2020-Dec-17.0) TDB
Reference: JPL 21 (heliocentric ecliptic J2000)
Element | Value | Uncertainty (1-sigma) | Units |
e | .160752167608118 | 4.0818e-08 | |
a | 3.064315089715321 | 1.9019e-08 | au |
q | 2.571719796809319 | 1.2844e-07 | au |
i | 2.30320313093208 | 4.0586e-06 | deg |
node | 108.4384517815944 | 0.00012536 | deg |
peri | 62.65471791626767 | 0.00012621 | deg |
M | 279.5764295487759 | 1.6192e-05 | deg |
tp | 2459638.202881572606 (2022-Feb-27.70288157) | 9.0157e-05 | TDB |
period | 1959.289254158447 5.36 | 1.8241e-05 4.994e-08 | d yr |
n | .1837400982197634 | 1.7106e-09 | deg/d |
Q | 3.556910382621324 | 2.2076e-08 | au |
|
| | Orbit Determination Parameters
Additional Information
|